2024/02/13 00:00:00, 0.0,-1.9
2024/02/13 00:10:00, 0.0,-2.1
2024/02/13 00:20:00, 0.0,-2.2
2024/02/13 00:30:00, 0.0,-2.1
2024/02/13 00:40:00, 0.0,-1.8
2024/02/13 00:50:00, 0.0,-1.8
2024/02/13 01:00:00, 0.0,-2.1
2024/02/13 01:10:00, 0.0,-2.0
2024/02/13 01:20:00, 0.0,-2.0
2024/02/13 01:30:00, 0.0,-2.2
2024/02/13 01:40:00, 0.0,-2.0
2024/02/13 01:50:00, 0.0,-1.9
2024/02/13 02:00:00, 0.0,-1.8
2024/02/13 02:10:00, 0.0,-1.8
2024/02/13 02:20:00, 0.0,-1.8
2024/02/13 02:30:00, 0.0,-1.7
2024/02/13 02:40:00, 0.0,-1.9
2024/02/13 02:50:00, 0.0,-1.9
2024/02/13 03:00:00, 0.0,-1.7
2024/02/13 03:10:00, 0.0,-1.9
2024/02/13 03:20:00, 0.0,-1.9
2024/02/13 03:30:00, 0.0,-2.1
2024/02/13 03:40:00, 0.0,-1.8
2024/02/13 03:50:00, 0.0,-1.7
2024/02/13 04:00:00, 0.0,-1.5
2024/02/13 04:10:00, 0.0,-1.9
2024/02/13 04:20:00, 0.0,-1.7
2024/02/13 04:30:00, 0.0,-1.8
2024/02/13 04:40:00, 0.0,-1.9
2024/02/13 04:50:00, 0.0,-1.6
2024/02/13 05:00:00, 0.0,-1.9
2024/02/13 05:10:00, 0.0,-1.9
2024/02/13 05:20:00, 0.0,-1.7
2024/02/13 05:30:00, 0.0,-1.7
2024/02/13 05:40:00, 0.0,-1.8
2024/02/13 05:50:00, 0.0,-1.8
2024/02/13 06:00:00, 0.0,-1.7
2024/02/13 06:10:00, 0.0,-1.8
2024/02/13 06:20:00, 0.0,-1.7
2024/02/13 06:30:00, 0.0,-1.8
2024/02/13 06:40:00, 0.0,-1.7
2024/02/13 06:50:00, 0.0,-1.4
2024/02/13 07:00:00, 0.0,-1.5
2024/02/13 07:10:00, 0.0,-1.6
2024/02/13 07:20:00, 0.0,-1.3
2024/02/13 07:30:00, 0.0,-1.3
2024/02/13 07:40:00, 0.0,-1.0
2024/02/13 07:50:00, 0.0,-0.9
2024/02/13 08:00:00, 0.0,-0.8
2024/02/13 08:10:00, 0.0,-0.7
2024/02/13 08:20:00, 0.0,-0.2
2024/02/13 08:30:00, 0.0, 0.1
2024/02/13 08:40:00, 0.0, 0.4
2024/02/13 08:50:00, 0.0, 0.8
2024/02/13 09:00:00, 0.0, 1.4
2024/02/13 09:10:00, 0.0, 1.7
2024/02/13 09:20:00, 0.0, 2.3
2024/02/13 09:30:00,---, 2.7
2024/02/13 09:40:00,21.4, 3.1
2024/02/13 09:50:00,21.4, 3.8
2024/02/13 10:00:00,21.4, 4.8
2024/02/13 10:10:00,21.6, 5.1
2024/02/13 10:20:00,21.6, 5.9
2024/02/13 10:30:00,21.6, 6.5
2024/02/13 10:40:00,21.7, 6.9
2024/02/13 10:50:00,21.5, 7.3
2024/02/13 11:00:00,21.4, 8.0
2024/02/13 11:10:00,21.4, 7.9
2024/02/13 11:20:00,21.4, 8.8
2024/02/13 11:30:00,21.4, 9.5
2024/02/13 11:40:00,21.4,10.0
2024/02/13 11:50:00,22.2,11.3
2024/02/13 12:00:00,22.4,11.7
2024/02/13 12:10:00,22.4,12.0
2024/02/13 12:20:00,22.2,12.4
2024/02/13 12:30:00,22.1,12.2
2024/02/13 12:40:00,21.9,12.9
2024/02/13 12:50:00,21.7,13.6
2024/02/13 13:00:00,21.6,13.6
2024/02/13 13:10:00,21.5,13.4
2024/02/13 13:20:00,21.2,13.0
2024/02/13 13:30:00,21.2,12.4
2024/02/13 13:40:00,21.1,12.1
2024/02/13 13:50:00,21.1,12.2
2024/02/13 14:00:00,20.9,12.4
2024/02/13 14:10:00,20.6,12.8
2024/02/13 14:20:00,20.2,10.8
2024/02/13 14:30:00,19.7,10.6
2024/02/13 14:40:00,19.6, 9.0
2024/02/13 14:50:00,19.5, 8.5
2024/02/13 15:00:00,19.4, 8.6
2024/02/13 15:10:00,19.4, 8.3
2024/02/13 15:20:00,19.0, 7.8
2024/02/13 15:30:00,19.0, 7.1
2024/02/13 15:40:00,18.9, 6.9
2024/02/13 15:50:00,19.0, 6.3
2024/02/13 16:00:00,18.9, 6.1
2024/02/13 16:10:00,18.6, 5.9
2024/02/13 16:20:00,18.6, 5.5
2024/02/13 16:30:00,18.6, 5.6
2024/02/13 16:40:00,18.7, 5.2
2024/02/13 16:50:00,18.6, 5.0
2024/02/13 17:00:00,18.5, 5.0
2024/02/13 17:10:00,18.6, 4.8
2024/02/13 17:20:00,18.6, 4.5
2024/02/13 17:30:00,18.6, 4.5
2024/02/13 17:40:00,18.6, 4.2
2024/02/13 17:50:00,18.6, 3.9
2024/02/13 18:00:00,18.7, 3.7
2024/02/13 18:10:00,18.7, 3.2
2024/02/13 18:20:00,18.7, 3.1
2024/02/13 18:30:00,18.7, 2.8
2024/02/13 18:40:00,18.7, 2.6
2024/02/13 18:50:00,18.7, 2.5
2024/02/13 19:00:00,18.6, 2.7
2024/02/13 19:10:00,18.6, 2.5
2024/02/13 19:20:00,18.6, 2.4
2024/02/13 19:30:00,18.7, 2.4
2024/02/13 19:40:00,18.6, 2.2
2024/02/13 19:50:00,18.6, 2.4
2024/02/13 20:00:00,18.7, 2.3
2024/02/13 20:10:00,18.6, 2.3
2024/02/13 20:20:00,18.5, 2.2
2024/02/13 20:30:00,18.5, 2.4
2024/02/13 20:40:00,18.5, 2.2
2024/02/13 20:50:00,18.5, 1.9
2024/02/13 21:00:00,18.5, 2.1
2024/02/13 21:10:00,18.6, 2.2
2024/02/13 21:20:00,18.5, 2.1
2024/02/13 21:30:00,18.5, 2.2
2024/02/13 21:40:00,18.5, 2.4
2024/02/13 21:50:00,18.5, 2.3
2024/02/13 22:00:00,18.5, 2.0
2024/02/13 22:10:00,18.5, 2.4
2024/02/13 22:20:00,18.5, 2.6
2024/02/13 22:30:00,18.4, 3.1
2024/02/13 22:40:00,18.5, 2.9
2024/02/13 22:50:00,18.5, 3.3
2024/02/13 23:00:00,18.5, 3.2
2024/02/13 23:10:00,18.5, 3.4
2024/02/13 23:20:00,18.5, 3.6
2024/02/13 23:30:00,18.6, 3.7
2024/02/13 23:40:00,18.6, 3.3
2024/02/13 23:50:00,18.6, 3.2
